TimeMST,TemperatureF,Dew PointF,Humidity,Sea Level PressureIn,VisibilityMPH,Wind Direction,Wind SpeedMPH,Gust SpeedMPH,PrecipitationIn,Events,Conditions,WindDirDegrees,DateUTC
12:51 AM,14.0,10.9,88,29.83,9.0,NW,4.6,-,N/A,,Clear,310,2013-02-20 07:51:00
1:51 AM,14.0,10.0,84,29.83,10.0,North,4.6,-,N/A,,Clear,350,2013-02-20 08:51:00
2:00 AM,14.0,8.6,79,29.72,10.0,NNE,3.5,-,N/A,,Scattered Clouds,20,2013-02-20 09:00:00
2:09 AM,15.8,10.4,79,29.71,10.0,Calm,Calm,-,N/A,,Mostly Cloudy,0,2013-02-20 09:09:00
2:51 AM,16.0,10.0,77,29.84,10.0,Calm,Calm,-,N/A,,Scattered Clouds,0,2013-02-20 09:51:00
3:51 AM,12.0,7.0,80,29.86,10.0,Calm,Calm,-,N/A,,Clear,0,2013-02-20 10:51:00
4:51 AM,10.9,5.0,77,29.86,10.0,North,3.5,-,N/A,,Clear,360,2013-02-20 11:51:00
5:51 AM,10.9,5.0,77,29.87,10.0,Calm,Calm,-,N/A,,Clear,0,2013-02-20 12:51:00
6:51 AM,10.0,3.0,73,29.90,10.0,NNW,3.5,-,N/A,,Clear,340,2013-02-20 13:51:00
7:51 AM,17.1,12.0,81,29.91,10.0,NNW,6.9,-,N/A,,Clear,330,2013-02-20 14:51:00
8:51 AM,21.0,12.9,71,29.92,10.0,NNW,9.2,-,N/A,,Clear,330,2013-02-20 15:51:00
9:51 AM,26.1,18.0,71,29.91,10.0,NNW,6.9,-,0.01,,Clear,340,2013-02-20 16:51:00
10:51 AM,27.0,19.0,72,29.91,10.0,NW,6.9,-,N/A,,Partly Cloudy,320,2013-02-20 17:51:00
11:51 AM,28.0,15.1,58,29.91,10.0,North,11.5,-,N/A,,Overcast,350,2013-02-20 18:51:00
12:51 PM,30.0,12.9,49,29.91,10.0,North,11.5,-,N/A,,Partly Cloudy,350,2013-02-20 19:51:00
1:51 PM,30.9,12.9,47,29.89,10.0,NNW,10.4,17.3,N/A,,Clear,340,2013-02-20 20:51:00
2:51 PM,30.9,10.9,43,29.88,10.0,NW,11.5,-,N/A,,Clear,320,2013-02-20 21:51:00
3:51 PM,30.9,12.0,46,29.89,10.0,North,11.5,20.7,N/A,,Clear,350,2013-02-20 22:51:00
4:51 PM,28.9,10.9,47,29.91,10.0,NNW,11.5,-,N/A,,Clear,330,2013-02-20 23:51:00
5:51 PM,26.1,10.0,51,29.94,10.0,NW,10.4,-,N/A,,Clear,320,2013-02-21 00:51:00
6:51 PM,24.1,10.0,55,29.97,10.0,NNW,6.9,-,N/A,,Clear,330,2013-02-21 01:51:00
7:51 PM,21.0,8.1,57,29.98,10.0,NNW,6.9,-,N/A,,Clear,340,2013-02-21 02:51:00
8:51 PM,18.0,7.0,62,29.99,10.0,NNW,6.9,-,N/A,,Clear,340,2013-02-21 03:51:00
9:51 PM,18.0,8.1,65,29.99,10.0,North,5.8,-,N/A,,Clear,10,2013-02-21 04:51:00
10:51 PM,17.1,8.1,68,29.99,10.0,North,6.9,-,N/A,,Clear,10,2013-02-21 05:51:00
11:51 PM,10.0,5.0,80,30.02,10.0,North,5.8,-,N/A,,Clear,350,2013-02-21 06:51:00